GW2349 Weather Reports


time (UTC)temp
C
wind
direction
speed
KPH
gust
KPH
rain 1hr
cm
rain 24hr
cm
rain mn
cm
humidity
%
barometer
mb
20260506201043 3 0 0.0 0.0 0.03 0.38 0.38 80 1010.3
20260506200541 3 0 0.0 0.0 0.05 0.38 0.38 80 1010.3
20260506200109 3 0 0.0 0.0 0.05 0.38 0.38 80 1010.3
20260506195545 3 0 0.0 0.0 0.03 0.36 0.36 80 1010.3
20260506195042 3 0 0.0 0.0 0.00 0.36 0.36 80 1010.2
20260506194606 3 0 0.0 0.0 0.00 0.36 0.36 80 1010.1
20260506194041 3 0 0.0 0.0 0.00 0.36 0.36 80 1010.1
20260506193544 3 0 0.0 0.0 0.00 0.36 0.36 80 1010.0
20260506193052 3 0 0.0 0.0 0.00 0.36 0.36 80 1010.0
20260506192542 3 0 0.0 0.0 0.03 0.36 0.36 80 1010.1
20260506192046 3 0 0.0 1.6 0.03 0.36 0.36 80 1010.0
20260506191547 3 0 0.0 6.4 0.03 0.36 0.36 81 1010.0
20260506191042 3 0 1.6 6.4 0.05 0.36 0.36 81 1010.0
20260506190542 3 193 0.0 3.2 0.03 0.33 0.33 81 1010.0
20260506190053 3 0 0.0 0.0 0.03 0.33 0.33 81 1009.8
20260506185542 3 0 0.0 0.0 0.03 0.33 0.33 79 1009.7
20260506185045 3 0 0.0 0.0 0.03 0.33 0.33 79 1009.6
20260506184602 3 0 0.0 0.0 0.05 0.33 0.33 79 1009.7
20260506184042 3 0 0.0 0.0 0.05 0.33 0.33 80 1009.6
20260506183541 3 0 0.0 0.0 0.08 0.33 0.33 80 1009.6
20260506183102 3 0 0.0 0.0 0.08 0.33 0.33 79 1009.6
20260506182541 3 0 0.0 0.0 0.05 0.30 0.30 79 1009.5
20260506182041 3 0 0.0 0.0 0.05 0.30 0.30 79 1009.6
20260506181557 3 0 0.0 0.0 0.05 0.30 0.30 79 1009.6
20260506181042 3 0 0.0 0.0 0.05 0.28 0.28 79 1009.5
20260506180545 3 0 0.0 0.0 0.05 0.28 0.28 79 1009.5
20260506180051 3 0 0.0 1.6 0.05 0.28 0.28 79 1009.5
20260506175544 3 0 0.0 3.2 0.08 0.28 0.28 78 1009.6
20260506175042 3 0 0.0 3.2 0.05 0.28 0.28 78 1009.4
20260506174547 3 0 0.0 1.6 0.05 0.28 0.28 78 1009.4
20260506174042 3 0 0.0 4.8 0.05 0.28 0.28 78 1009.2
20260506173542 3 0 0.0 4.8 0.05 0.25 0.25 78 1009.3
20260506173059 3 113 1.6 4.8 0.05 0.25 0.25 78 1009.4
20260506172543 3 0 0.0 4.8 0.05 0.25 0.25 78 1009.3
20260506172043 3 130 0.0 4.8 0.08 0.25 0.25 78 1009.2
20260506171550 3 58 1.6 4.8 0.08 0.25 0.25 77 1009.2
20260506171042 3 56 1.6 4.8 0.08 0.23 0.23 77 1009.0
20260506170542 3 101 0.0 1.6 0.08 0.23 0.23 77 1009.1
20260506170050 3 0 0.0 1.6 0.08 0.23 0.23 77 1009.0
20260506165541 3 0 0.0 1.6 0.10 0.20 0.20 77 1009.1
20260506165042 3 0 0.0 6.4 0.13 0.20 0.20 77 1009.1
20260506164551 3 0 0.0 6.4 0.15 0.20 0.20 77 1009.3
20260506164041 3 20 0.0 3.2 0.18 0.20 0.20 76 1009.2
20260506163541 3 0 0.0 0.0 0.15 0.18 0.18 76 1009.2
20260506163051 3 0 0.0 0.0 0.18 0.18 0.18 75 1009.0
20260506162541 3 0 0.0 0.0 0.18 0.18 0.18 75 1009.1
20260506162041 3 0 0.0 0.0 0.18 0.18 0.18 75 1009.1
20260506161551 4 0 0.0 0.0 0.15 0.15 0.15 74 1009.2
20260506161041 4 0 0.0 0.0 0.15 0.15 0.15 74 1009.1
20260506160541 4 0 0.0 9.7 0.15 0.15 0.15 74 1009.1
20260506160055 4 0 0.0 9.7 0.13 0.13 0.13 73 1009.1
20260506155542 4 20 1.6 9.7 0.08 0.08 0.08 73 1009.1
20260506155044 4 342 3.2 8.0 0.08 0.08 0.08 73 1009.1
20260506154554 5 360 1.6 9.7 0.05 0.05 0.05 73 1009.0
20260506154046 5 352 4.8 16.1 0.03 0.03 0.03 73 1009.0
20260506153543 5 347 3.2 16.1 0.00 0.00 0.00 73 1008.9
20260506153053 5 11 9.7 16.1 0.00 0.00 0.00 73 1009.0
20260506152541 5 11 4.8 14.5 0.00 0.00 0.00 72 1009.0
20260506152043 5 280 1.6 11.3 0.00 0.00 0.00 72 1008.8
20260506151603 5 266 1.6 9.7 0.00 0.00 0.00 71 1008.8
20260506151041 5 217 1.6 6.4 0.00 0.00 0.00 71 1008.7
20260506150542 5 219 3.2 14.5 0.00 0.00 0.00 71 1008.8
20260506150047 5 256 6.4 19.3 0.00 0.00 0.00 70 1008.8
20260506145540 5 279 4.8 22.5 0.00 0.00 0.00 70 1008.9
20260506145042 6 175 9.7 22.5 0.00 0.00 0.00 69 1008.9
20260506144602 6 228 4.8 14.5 0.00 0.00 0.00 68 1008.8
20260506144043 6 258 6.4 16.1 0.00 0.00 0.00 67 1008.6
20260506143543 6 150 6.4 16.1 0.00 0.00 0.00 67 1008.7
20260506143054 6 193 8.0 17.7 0.00 0.00 0.00 67 1008.6
20260506142542 6 261 6.4 19.3 0.00 0.00 0.00 66 1008.7
20260506142041 6 198 9.7 20.9 0.00 0.00 0.00 66 1008.7
20260506141553 6 239 6.4 20.9 0.00 0.00 0.00 66 1008.6
20260506141042 6 250 9.7 20.9 0.00 0.00 0.00 66 1008.7
20260506140544 7 205 8.0 19.3 0.00 0.00 0.00 65 1008.7
20260506140113 7 187 8.0 24.1 0.00 0.00 0.00 64 1008.7
20260506135542 7 221 9.7 24.1 0.00 0.00 0.00 64 1008.7
20260506135044 7 196 6.4 20.9 0.00 0.00 0.00 64 1008.7
20260506134545 7 223 11.3 20.9 0.00 0.00 0.00 63 1008.5
20260506134041 7 250 9.7 24.1 0.00 0.00 0.00 62 1008.4
20260506133541 7 242 9.7 25.7 0.00 0.00 0.00 62 1008.3
20260506133053 7 204 11.3 25.7 0.00 0.00 0.00 60 1008.3
20260506132541 7 193 6.4 17.7 0.00 0.00 0.00 64 1008.2
20260506132043 7 258 9.7 16.1 0.00 0.00 0.00 63 1008.2
20260506131552 7 227 8.0 16.1 0.00 0.00 0.00 63 1008.1
20260506131042 7 256 4.8 16.1 0.00 0.00 0.00 62 1008.1
20260506130542 7 210 6.4 14.5 0.00 0.00 0.00 61 1008.2
20260506130105 7 234 4.8 14.5 0.00 0.00 0.00 63 1008.2
20260506125541 7 227 6.4 17.7 0.00 0.00 0.00 62 1008.2
20260506125041 7 239 9.7 17.7 0.00 0.00 0.00 60 1008.2
20260506124550 7 248 6.4 14.5 0.00 0.00 0.00 59 1008.2
20260506124042 7 263 6.4 14.5 0.00 0.00 0.00 61 1008.1
20260506123541 8 259 8.0 14.5 0.00 0.00 0.00 60 1008.1
20260506123049 8 290 8.0 14.5 0.00 0.00 0.00 59 1008.0
20260506122541 8 230 4.8 14.5 0.00 0.00 0.00 58 1008.0
20260506122042 8 236 8.0 14.5 0.00 0.00 0.00 57 1008.0
20260506121551 9 243 6.4 14.5 0.00 0.00 0.00 56 1008.0
20260506121042 9 329 4.8 14.5 0.00 0.00 0.00 56 1008.0
20260506120542 9 323 6.4 14.5 0.00 0.00 0.00 57 1008.0
20260506120053 9 333 3.2 12.9 0.00 0.00 0.00 56 1007.9
20260506115542 9 252 6.4 12.9 0.00 0.05 0.00 54 1007.9
20260506115043 9 217 3.2 14.5 0.00 0.05 0.00 51 1007.8
20260506114550 9 224 3.2 16.1 0.00 0.05 0.00 51 1007.8
20260506114042 9 122 4.8 17.7 0.00 0.05 0.00 50 1007.8
20260506113542 9 94 6.4 17.7 0.00 0.05 0.00 48 1007.7
20260506113054 9 143 9.7 17.7 0.00 0.05 0.00 47 1007.7
20260506112542 10 130 3.2 11.3 0.00 0.05 0.00 52 1007.6
20260506112041 9 122 4.8 16.1 0.00 0.05 0.00 50 1007.6
20260506111553 9 144 1.6 16.1 0.00 0.05 0.00 53 1007.6
20260506111043 9 215 4.8 16.1 0.00 0.05 0.00 53 1007.5
20260506110542 9 178 4.8 16.1 0.00 0.05 0.00 53 1007.5
20260506110100 8 136 1.6 16.1 0.00 0.05 0.00 54 1007.3
20260506105541 8 15 9.7 16.1 0.00 0.05 0.00 53 1007.3
20260506105041 8 147 4.8 14.5 0.00 0.05 0.00 53 1007.3
20260506104544 8 150 4.8 19.3 0.00 0.05 0.00 54 1007.3
20260506104041 8 284 6.4 19.3 0.00 0.05 0.00 57 1007.3
20260506103542 8 234 3.2 16.1 0.00 0.05 0.00 57 1007.1
20260506103051 7 0 1.6 19.3 0.00 0.05 0.00 55 1007.1
20260506102541 8 184 6.4 19.3 0.00 0.05 0.00 55 1007.1
20260506102041 8 175 4.8 12.9 0.00 0.05 0.00 58 1007.0
20260506101556 8 247 6.4 16.1 0.00 0.05 0.00 59 1007.0
20260506101041 7 261 3.2 16.1 0.00 0.05 0.00 61 1007.0
20260506100541 7 240 3.2 16.1 0.00 0.05 0.00 63 1007.0
20260506100047 7 315 4.8 16.1 0.00 0.05 0.00 62 1007.0
20260506095545 7 274 6.4 14.5 0.00 0.08 0.00 61 1006.9
20260506095042 7 275 4.8 14.5 0.00 0.08 0.00 60 1006.9
20260506094557 7 281 6.4 14.5 0.00 0.08 0.00 58 1006.8
20260506094041 7 235 4.8 14.5 0.00 0.08 0.00 59 1006.9
20260506093545 7 252 6.4 14.5 0.00 0.08 0.00 60 1006.8
20260506093050 7 281 6.4 12.9 0.00 0.08 0.00 59 1006.9
20260506092542 7 229 4.8 14.5 0.00 0.08 0.00 59 1006.8
20260506092042 7 254 4.8 14.5 0.00 0.08 0.00 59 1006.8
20260506091548 7 262 3.2 11.3 0.00 0.08 0.00 59 1006.8
20260506091045 7 163 8.0 12.9 0.00 0.08 0.00 57 1006.7
20260506090544 7 147 6.4 12.9 0.00 0.08 0.00 58 1006.7
20260506090049 7 138 3.2 12.9 0.00 0.08 0.00 60 1006.7
20260506085540 7 103 6.4 12.9 0.00 0.15 0.00 59 1006.7
20260506085043 7 206 4.8 11.3 0.00 0.15 0.00 60 1006.8
20260506084551 7 207 4.8 14.5 0.00 0.15 0.00 61 1006.7
20260506084041 7 167 4.8 14.5 0.00 0.15 0.00 60 1006.8
20260506083542 7 145 3.2 12.9 0.00 0.15 0.00 62 1006.7
20260506083051 6 113 6.4 12.9 0.00 0.15 0.00 62 1006.7
20260506082542 6 123 3.2 12.9 0.00 0.15 0.00 62 1006.7
20260506082044 6 173 4.8 9.7 0.00 0.15 0.00 62 1006.6
20260506081549 6 0 1.6 12.9 0.00 0.15 0.00 63 1006.6
20260506081041 6 178 6.4 12.9 0.00 0.15 0.00 63 1006.6
20260506080541 6 124 3.2 11.3 0.00 0.15 0.00 65 1006.5
20260506073050 4 125 3.2 11.3 0.00 0.15 0.00 67 1006.2
20260506072542 4 124 4.8 11.3 0.00 0.15 0.00 66 1006.2
20260506072045 4 0 0.0 4.8 0.00 0.15 0.00 68 1006.1
20260506071606 4 140 1.6 8.0 0.00 0.15 0.00 67 1006.2
20260506071041 4 139 3.2 11.3 0.00 0.15 0.00 66 1006.1
20260506070541 4 146 1.6 11.3 0.00 0.15 0.00 67 1006.0
20260506062041 3 145 1.6 4.8 0.00 0.15 0.00 72 1005.7
20260506061549 3 148 1.6 8.0 0.00 0.15 0.00 72 1005.7
20260506061041 3 148 3.2 8.0 0.00 0.15 0.00 72 1005.7
20260506060540 3 177 1.6 6.4 0.00 0.15 0.00 74 1005.6
20260506051043 3 0 0.0 4.8 0.00 0.18 0.00 80 1005.2
20260506050542 2 0 0.0 0.0 0.00 0.18 0.00 80 1005.2
20260506045041 2 0 0.0 0.0 0.00 0.18 0.00 80 1005.0
20260506044555 2 0 0.0 0.0 0.00 0.18 0.00 80 1005.0
20260506044040 2 0 0.0 0.0 0.00 0.18 0.00 80 1004.9
20260506043545 2 0 0.0 0.0 0.00 0.18 0.00 80 1005.0
20260506043053 2 0 0.0 0.0 0.00 0.18 0.00 80 1005.0
20260506042543 2 0 0.0 0.0 0.00 0.18 0.00 81 1004.9
20260506042041 2 0 0.0 0.0 0.00 0.18 0.00 81 1004.9
20260506041600 2 0 0.0 0.0 0.00 0.18 0.00 80 1004.9
20260506041041 2 0 0.0 3.2 0.00 0.18 0.00 81 1004.9
20260506040542 2 0 0.0 3.2 0.00 0.18 0.00 81 1004.8
20260506040050 2 352 1.6 3.2 0.00 0.18 0.00 81 1004.8
20260506035544 2 0 0.0 1.6 0.00 0.18 0.00 82 1004.7
20260506035045 2 0 0.0 3.2 0.00 0.18 0.00 81 1004.6
20260506034547 2 0 0.0 3.2 0.00 0.18 0.00 81 1004.7
20260506034041 2 0 1.6 3.2 0.00 0.18 0.00 81 1004.7
20260506033544 2 0 0.0 0.0 0.00 0.18 0.00 81 1004.7
20260506033058 2 0 0.0 0.0 0.00 0.18 0.00 81 1004.5
20260506032542 2 0 0.0 0.0 0.00 0.18 0.00 80 1004.5
20260506032041 2 0 0.0 0.0 0.00 0.18 0.00 80 1004.6
20260506031554 2 0 0.0 0.0 0.00 0.18 0.00 80 1004.6
20260506031041 2 0 0.0 0.0 0.00 0.18 0.00 81 1004.5
20260506030541 2 0 0.0 0.0 0.00 0.18 0.00 81 1004.5
20260506030052 2 0 0.0 0.0 0.00 0.18 0.00 81 1004.5
20260506025543 2 0 0.0 0.0 0.00 0.18 0.00 81 1004.4
20260506025040 2 0 0.0 0.0 0.00 0.18 0.00 80 1004.4
20260506024552 2 0 0.0 0.0 0.00 0.18 0.00 80 1004.4
20260506024040 2 0 0.0 0.0 0.00 0.18 0.00 80 1004.3
20260506023542 1 0 0.0 0.0 0.00 0.18 0.00 79 1004.4
20260506023046 1 0 0.0 0.0 0.00 0.18 0.00 80 1004.3
20260506022541 1 0 0.0 0.0 0.00 0.18 0.00 79 1004.2
20260506022041 1 0 0.0 0.0 0.00 0.18 0.00 79 1004.3
20260506021545 1 0 0.0 0.0 0.00 0.18 0.00 79 1004.3
20260506021041 1 0 0.0 0.0 0.00 0.18 0.00 79 1004.2
20260506020540 1 0 0.0 0.0 0.00 0.18 0.00 78 1004.1
20260506020049 1 0 0.0 0.0 0.00 0.18 0.00 78 1004.0
20260506015541 1 0 0.0 0.0 0.00 0.18 0.00 78 1004.0
20260506015041 1 0 0.0 0.0 0.00 0.18 0.00 78 1004.0
20260506014555 2 0 0.0 0.0 0.00 0.18 0.00 78 1003.9
20260506014040 2 0 0.0 0.0 0.00 0.18 0.00 78 1003.9
20260506013542 2 0 0.0 0.0 0.00 0.18 0.00 78 1003.9
20260506013050 2 0 0.0 0.0 0.00 0.18 0.00 78 1003.8
20260506012544 2 0 0.0 0.0 0.00 0.18 0.00 78 1003.8
20260506012044 2 0 0.0 0.0 0.00 0.18 0.00 78 1003.8
20260506011545 2 0 0.0 0.0 0.00 0.18 0.00 77 1003.7
20260506011042 2 0 0.0 0.0 0.00 0.18 0.00 77 1003.6
20260506010545 2 0 0.0 0.0 0.00 0.18 0.00 77 1003.5
20260506010048 2 0 0.0 0.0 0.00 0.18 0.00 76 1003.5
20260506005543 2 0 0.0 0.0 0.00 0.18 0.00 76 1003.5
20260506005043 2 0 0.0 0.0 0.00 0.18 0.00 76 1003.4
20260506004555 2 0 0.0 0.0 0.00 0.18 0.00 76 1003.3
20260506004043 2 0 0.0 0.0 0.00 0.18 0.00 76 1003.4
20260506003543 2 0 0.0 0.0 0.00 0.18 0.00 76 1003.2
20260506003050 3 0 0.0 0.0 0.00 0.18 0.00 76 1003.3
20260506002547 3 0 0.0 0.0 0.00 0.18 0.00 76 1003.3
20260506002042 3 0 0.0 0.0 0.00 0.18 0.00 76 1003.2
20260506001608 3 0 0.0 0.0 0.00 0.18 0.00 76 1003.2
20260506001043 3 0 0.0 0.0 0.00 0.18 0.00 76 1003.2
20260506000543 3 0 0.0 0.0 0.00 0.18 0.00 76 1003.2
20260506000049 3 0 0.0 0.0 0.00 0.18 0.00 76 1003.1
20260505235543 3 0 0.0 0.0 0.00 0.18 0.00 76 1003.2
20260505235044 3 0 0.0 0.0 0.00 0.18 0.00 76 1003.2
20260505234553 3 0 0.0 0.0 0.00 0.18 0.00 76 1003.1
20260505234043 3 0 0.0 0.0 0.00 0.18 0.00 76 1003.1
20260505233546 3 0 0.0 1.6 0.00 0.18 0.00 76 1003.0
20260505233051 3 0 0.0 4.8 0.00 0.18 0.00 76 1003.0
20260505232543 3 0 0.0 6.4 0.00 0.18 0.00 76 1003.1
20260505232043 3 339 3.2 8.0 0.00 0.18 0.00 76 1003.0
20260505231556 3 321 3.2 9.7 0.00 0.18 0.00 76 1002.9
20260505231046 3 326 3.2 9.7 0.00 0.18 0.00 76 1002.8
20260505230542 3 323 3.2 9.7 0.00 0.18 0.00 76 1002.9
20260505230056 4 329 1.6 6.4 0.00 0.18 0.00 76 1002.9
20260505225543 4 352 0.0 8.0 0.00 0.18 0.00 76 1002.9
20260505225043 4 11 3.2 14.5 0.00 0.18 0.00 75 1002.9
20260505224552 4 5 3.2 14.5 0.00 0.18 0.00 76 1002.9
20260505224042 4 352 1.6 12.9 0.00 0.18 0.00 75 1002.9
20260505223542 4 331 4.8 12.9 0.00 0.18 0.00 75 1002.9
20260505223057 4 352 3.2 11.3 0.00 0.18 0.00 75 1002.8
20260505222542 4 352 3.2 11.3 0.00 0.18 0.00 75 1002.9
20260505222042 4 352 3.2 12.9 0.00 0.18 0.00 75 1002.8
20260505221555 4 269 3.2 12.9 0.00 0.18 0.00 75 1002.8
20260505221044 4 344 4.8 12.9 0.00 0.18 0.00 75 1002.7
20260505220545 4 360 3.2 9.7 0.00 0.18 0.00 74 1002.8
20260505220051 4 348 3.2 9.7 0.00 0.18 0.00 74 1002.7
20260505215543 4 352 3.2 9.7 0.00 0.18 0.18 74 1002.7
20260505215043 4 329 3.2 9.7 0.00 0.18 0.18 73 1002.7
20260505214601 4 335 1.6 6.4 0.00 0.18 0.18 73 1002.6
20260505214043 4 9 1.6 6.4 0.00 0.18 0.18 73 1002.5
20260505213542 4 331 1.6 12.9 0.00 0.18 0.18 73 1002.5
20260505213056 4 317 1.6 12.9 0.00 0.18 0.18 73 1002.6
20260505212542 4 9 3.2 6.4 0.00 0.18 0.18 73 1002.6
20260505212043 4 282 3.2 8.0 0.00 0.18 0.18 72 1002.5
20260505211548 4 330 1.6 9.7 0.00 0.18 0.18 72 1002.5
20260505211044 4 5 3.2 9.7 0.00 0.18 0.18 72 1002.4
20260505210542 4 0 1.6 8.0 0.00 0.18 0.18 72 1002.5
20260505210056 4 315 3.2 8.0 0.00 0.18 0.18 71 1002.5
20260505205542 4 0 0.0 0.0 0.00 0.18 0.18 71 1002.4
20260505205044 4 0 0.0 0.0 0.00 0.18 0.18 71 1002.3
20260505204549 4 0 0.0 0.0 0.00 0.18 0.18 71 1002.3
20260505204043 4 0 0.0 0.0 0.00 0.18 0.18 71 1002.3
20260505203543 4 0 0.0 0.0 0.00 0.18 0.18 71 1002.3
20260505203052 4 0 0.0 0.0 0.00 0.18 0.18 70 1002.2
20260505202542 5 0 0.0 0.0 0.00 0.18 0.18 70 1002.2
20260505202047 5 0 0.0 0.0 0.00 0.18 0.18 70 1002.2
20260505201605 5 0 0.0 0.0 0.00 0.18 0.18 69 1002.2